Location: Newark
(42.1211°N, 12.2319°E)
Time: 08:49:29
(UTC+00:00)

N. Korean satellite - Visible Passes

Search period start: 13 December 2019 00:00
Search period end: 23 December 2019 00:00
Orbit: 455 x 507 km, 97.2° (Epoch: 12 December)

Date Brightness Start Highest point End Pass type
(mag) Time Alt. Az. Time Alt. Az. Time Alt. Az.
13 Dec 6.5 05:20:00 10° N 05:23:27 57° WNW 05:26:50 10° SSW visible
13 Dec 10.3 17:31:52 10° WSW 17:32:35 10° W 17:33:17 10° W visible
14 Dec 7.0 04:54:33 10° NNE 04:58:02 61° E 05:01:26 10° S visible
14 Dec 9.5 17:04:06 10° SW 17:06:56 21° W 17:09:47 10° NW visible
15 Dec 8.7 04:29:28 10° NE 04:32:31 27° E 04:35:30 10° SSE visible
15 Dec 8.0 16:37:53 10° S 16:41:24 42° W 16:44:55 10° NNW visible
16 Dec 9.8 04:05:06 10° ENE 04:06:53 13° E 04:08:40 10° ESE visible
16 Dec 7.1 05:37:15 10° N 05:40:26 33° WNW 05:43:32 10° SW visible
16 Dec 6.6 16:12:16 10° SSE 16:15:57 87° ENE 16:19:37 10° N visible
17 Dec 6.3 05:11:35 10° N 05:15:04 75° WNW 05:18:29 10° SSW visible
17 Dec 10.0 17:22:21 10° WSW 17:24:08 13° W 17:25:54 10° WNW visible
18 Dec 7.5 04:46:14 10° NNE 04:49:36 46° E 04:52:54 10° S visible
18 Dec 9.1 16:55:24 10° SSW 16:58:31 26° W 17:01:37 10° NW visible
19 Dec 9.1 04:21:19 10° NE 04:24:03 22° E 04:26:45 10° SSE visible
19 Dec 7.8 05:54:42 10° NNW 05:57:20 21° WNW 05:59:57 10° WSW visible
19 Dec 7.5 16:29:24 10° S 16:33:00 54° W 16:36:35 10° NNW visible
20 Dec 10.1 03:57:42 10° ENE 03:58:24 10° E 03:59:05 10° ESE visible
20 Dec 6.8 05:28:44 10° N 05:32:02 42° WNW 05:35:17 10° SW visible
21 Dec 6.4 05:03:10 10° NNE 05:06:38 83° ESE 05:10:03 10° S visible
21 Dec 9.8 17:13:20 10° SW 17:15:40 16° W 17:17:59 10° NW visible
22 Dec 8.1 04:37:56 10° NNE 04:41:08 35° E 04:44:19 10° SSE visible
22 Dec 8.6 16:46:47 10° SSW 16:50:05 32° W 16:53:22 10° NNW visible
